Total_Precipitation_Accumulation
0.69 0.80 0.71 0.48 0.32 0.26 0.21 0.19 0.23 0.24 0.08 0.02 0.02 0.02 0.01 0.01 0.00 0.00 0.00 0.00 0.00 0.00 0.00 0.00 0.00 0.00 0.00 0.00 0.00 0.00 0.00 0.00 0.00 0.00 0.01 0.05 0.05 0.11
0.46 0.47 0.48 0.43 0.37 0.31 0.30 0.26 0.28 0.29 0.20 0.04 0.04 0.03 0.04 0.03 0.03 0.01 0.00 0.00 0.00 0.00 0.00 0.00 0.00 0.00 0.00 0.00 0.00 0.00 0.00 0.00 0.00 0.00 0.00 0.00 0.00 0.00
0.41 0.54 0.54 0.36 0.33 0.27 0.26 0.24 0.21 0.22 0.22 0.11 0.05 0.06 0.07 0.04 0.04 0.03 0.03 0.03 0.01 0.02 0.02 0.02 0.01 0.01 0.01 0.01 0.00 0.00 0.00 0.00 0.00 0.00 0.00 0.00 0.00 0.00
0.28 0.39 0.62 0.64 0.52 0.40 0.35 0.28 0.22 0.21 0.25 0.20 0.14 0.11 0.05 0.03 0.03 0.03 0.02 0.02 0.03 0.04 0.05 0.04 0.04 0.03 0.01 0.00 0.00 0.00 0.00 0.00 0.00 0.00 0.00 0.00 0.00 0.01
0.18 0.23 0.36 0.51 0.65 0.56 0.42 0.35 0.28 0.25 0.25 0.26 0.20 0.16 0.12 0.06 0.05 0.02 0.01 0.03 0.04 0.03 0.02 0.00 0.00 0.01 0.01 0.01 0.00 0.00 0.01 0.04 0.09 0.14 0.16 0.17 0.17 0.18
0.08 0.20 0.24 0.31 0.40 0.46 0.49 0.43 0.42 0.39 0.33 0.33 0.29 0.21 0.14 0.08 0.13 0.06 0.06 0.05 0.05 0.03 0.04 0.04 0.05 0.05 0.05 0.08 0.13 0.15 0.18 0.20 0.20 0.17 0.16 0.18 0.21 0.25
0.06 0.11 0.19 0.24 0.32 0.36 0.47 0.49 0.49 0.46 0.42 0.40 0.35 0.29 0.17 0.12 0.12 0.12 0.21 0.18 0.25 0.25 0.30 0.32 0.35 0.35 0.39 0.37 0.27 0.21 0.17 0.19 0.19 0.18 0.20 0.24 0.29 0.30
0.15 0.11 0.14 0.32 0.39 0.42 0.40 0.41 0.47 0.52 0.45 0.35 0.33 0.32 0.21 0.21 0.18 0.23 0.25 0.25 0.18 0.13 0.15 0.19 0.21 0.24 0.22 0.15 0.17 0.12 0.11 0.13 0.15 0.14 0.13 0.14 0.17 0.19
0.21 0.24 0.26 0.21 0.26 0.21 0.43 0.47 0.41 0.48 0.51 0.45 0.39 0.30 0.37 0.48 0.55 0.55 0.53 0.51 0.42 0.30 0.30 0.39 0.47 0.53 0.49 0.44 0.42 0.15 0.07 0.08 0.09 0.10 0.11 0.13 0.14 0.16
0.27 0.23 0.22 0.19 0.32 0.31 0.18 0.29 0.41 0.53 0.65 0.76 0.90 0.96 0.94 0.76 0.70 0.66 0.61 0.65 0.66 0.69 0.66 0.74 0.66 0.60 0.53 0.45 0.58 0.25 0.13 0.13 0.13 0.15 0.17 0.19 0.21 0.24
0.37 0.35 0.33 0.21 0.47 0.39 0.23 0.31 0.46 0.57 0.89 0.87 0.79 0.74 0.66 0.57 0.54 0.58 0.75 0.83 0.80 0.72 0.69 0.68 0.63 0.55 0.49 0.39 0.40 0.44 0.22 0.14 0.12 0.16 0.22 0.28 0.33 0.36
0.47 0.41 0.60 0.47 0.68 0.57 0.46 0.47 0.55 0.66 0.63 0.60 0.59 0.55 0.51 0.47 0.52 0.40 0.44 0.59 0.72 0.76 0.66 0.58 0.56 0.55 0.57 0.51 0.39 0.32 0.25 0.20 0.16 0.14 0.14 0.16 0.18 0.20
0.78 0.67 0.61 0.62 0.47 0.47 0.44 0.37 0.49 0.48 0.54 0.41 0.37 0.37 0.34 0.32 0.33 0.34 0.33 0.39 0.45 0.46 0.52 0.50 0.48 0.48 0.45 0.42 0.36 0.28 0.21 0.18 0.14 0.11 0.09 0.07 0.08 0.09
0.85 0.87 0.91 0.75 0.53 0.47 0.43 0.51 0.53 0.39 0.24 0.20 0.20 0.20 0.17 0.17 0.18 0.20 0.23 0.26 0.27 0.28 0.31 0.30 0.30 0.35 0.36 0.36 0.31 0.25 0.18 0.11 0.08 0.08 0.06 0.04 0.03 0.02
0.81 0.82 0.81 0.79 0.72 0.65 0.61 0.57 0.49 0.40 0.36 0.33 0.32 0.28 0.19 0.12 0.10 0.08 0.09 0.11 0.15 0.20 0.26 0.29 0.29 0.28 0.23 0.17 0.14 0.11 0.07 0.03 0.02 0.02 0.01 0.00 0.00 0.00
0.45 0.45 0.46 0.46 0.47 0.50 0.49 0.47 0.46 0.44 0.39 0.35 0.30 0.26 0.19 0.14 0.12 0.11 0.09 0.09 0.07 0.08 0.07 0.07 0.08 0.08 0.07 0.05 0.04 0.02 0.01 0.00 0.00 0.00 0.00 0.00 0.00 0.00
0.27 0.27 0.26 0.26 0.25 0.25 0.26 0.27 0.27 0.27 0.26 0.26 0.23 0.20 0.15 0.11 0.09 0.07 0.07 0.07 0.07 0.07 0.06 0.04 0.02 0.01 0.01 0.01 0.01 0.00 0.00 0.00 0.00 0.00 0.00 0.00 0.00 0.00
0.07 0.10 0.13 0.14 0.15 0.18 0.19 0.19 0.17 0.16 0.16 0.14 0.12 0.10 0.09 0.08 0.06 0.04 0.03 0.03 0.03 0.02 0.02 0.01 0.00 0.00 0.00 0.00 0.00 0.00 0.00 0.00 0.00 0.00 0.00 0.00 0.00 0.00
0.00 0.01 0.01 0.01 0.01 0.01 0.01 0.02 0.03 0.04 0.04 0.04 0.03 0.02 0.01 0.00 0.00 0.00 0.00 0.00 0.00 0.00 0.00 0.00 0.00 0.00 0.00 0.00 0.00 0.00 0.00 0.00 0.00 0.00 0.00 0.00 0.00 0.00
0.00 0.01 0.00 0.00 0.00 0.00 0.00 0.00 0.00 0.00 0.00 0.00 0.00 0.00 0.00 0.00 0.00 0.00 0.00 0.00 0.00 0.00 0.00 0.00 0.00 0.00 0.00 0.00 0.00 0.00 0.00 0.00 0.00 0.00 0.00 0.00 0.00 0.00
0.00 0.00 0.00 0.00 0.00 0.00 0.00 0.00 0.00 0.00 0.00 0.00 0.00 0.00 0.00 0.00 0.00 0.00 0.00 0.00 0.00 0.00 0.00 0.00 0.00 0.00 0.00 0.00 0.00 0.00 0.00 0.00 0.00 0.00 0.00 0.00 0.00 0.00
0.00 0.00 0.00 0.00 0.00 0.00 0.00 0.00 0.00 0.00 0.00 0.00 0.00 0.00 0.00 0.00 0.00 0.00 0.00 0.00 0.00 0.00 0.00 0.00 0.00 0.00 0.00 0.00 0.00 0.00 0.00 0.00 0.00 0.00 0.00 0.01 0.02 0.02
0.01 0.00 0.00 0.00 0.00 0.00 0.00 0.00 0.00 0.00 0.00 0.00 0.00 0.00 0.00 0.00 0.00 0.00 0.00 0.00 0.00 0.00 0.00 0.00 0.00 0.00 0.00 0.00 0.00 0.00 0.00 0.00 0.00 0.00 0.00 0.00 0.00 0.01